Precipitable_Water
1.59 1.69 1.79 1.84 1.91 1.96 2.03 2.08 2.09 2.12 2.06 1.97 1.98 2.04 2.07 2.05 2.03 1.90 1.91 1.97 2.03 2.08 2.13 2.09 2.05 2.02 1.93 1.92 1.94 1.96 2.02 2.01 1.68 1.70 1.85 1.87 1.73 1.67 1.71 1.85 1.87 2.01 2.01
1.22 1.28 1.34 1.48 1.62 1.66 1.74 1.89 2.10 2.19 2.15 2.09 2.06 2.03 1.99 2.04 2.09 2.05 1.98 1.94 1.85 1.84 1.97 1.97 1.97 2.08 2.02 2.03 1.98 1.90 1.96 2.06 1.91 1.75 1.82 1.91 1.89 1.67 1.63 1.61 1.75 1.93 2.01
0.91 0.95 1.06 1.18 1.26 1.41 1.55 1.61 1.71 1.83 2.00 2.27 2.21 2.03 1.98 2.00 2.00 2.02 2.00 1.98 1.91 1.86 1.84 1.79 1.77 1.95 2.01 2.04 2.01 1.93 1.93 1.98 2.01 1.89 1.82 1.95 1.97 1.85 1.69 1.80 1.79 1.86 1.98
0.78 0.79 0.83 0.95 1.06 1.17 1.32 1.44 1.52 1.60 1.64 1.82 1.97 1.94 1.90 1.84 1.88 1.93 1.95 1.95 1.93 1.91 1.83 1.79 1.73 1.70 1.70 1.75 1.80 1.81 1.80 1.80 1.86 1.87 1.82 1.83 1.89 1.93 1.71 1.64 1.57 1.77 1.79
0.83 0.86 0.85 0.87 0.94 1.05 1.17 1.27 1.37 1.48 1.59 1.67 1.73 1.75 1.83 1.83 1.80 1.86 1.87 1.91 1.93 1.90 1.90 1.88 1.85 1.78 1.79 1.75 1.66 1.66 1.76 1.75 1.76 1.70 1.73 1.79 1.76 1.71 1.59 1.72 1.60 1.74 1.87
0.83 0.90 0.97 0.97 1.01 1.03 1.09 1.16 1.20 1.29 1.39 1.48 1.54 1.59 1.57 1.57 1.56 1.61 1.60 1.60 1.63 1.76 1.83 1.89 2.00 2.03 1.95 1.85 1.78 1.70 1.80 1.84 1.70 1.69 1.62 1.76 1.69 1.71 1.78 1.76 1.71 1.68 1.64
0.69 0.79 0.92 0.97 0.98 1.03 1.12 1.20 1.24 1.23 1.31 1.33 1.37 1.42 1.43 1.54 1.59 1.62 1.59 1.49 1.41 1.53 1.67 1.82 1.93 1.97 2.21 2.07 1.97 1.82 1.68 1.81 1.97 1.84 1.67 1.73 1.76 1.81 1.81 1.78 1.78 1.72 1.66
0.64 0.72 0.79 0.82 0.83 0.90 0.99 1.08 1.16 1.22 1.26 1.29 1.32 1.39 1.38 1.40 1.48 1.54 1.54 1.47 1.39 1.42 1.55 1.69 1.75 1.84 1.89 1.96 2.01 1.98 1.86 1.62 1.86 1.99 1.88 1.83 1.86 1.89 1.95 1.92 1.90 1.87 1.84
0.70 0.72 0.75 0.79 0.78 0.80 0.82 0.90 1.02 1.12 1.15 1.20 1.21 1.19 1.25 1.31 1.38 1.41 1.49 1.47 1.39 1.37 1.45 1.61 1.75 1.74 1.80 1.89 1.90 1.84 1.84 1.79 1.68 1.88 2.07 2.02 1.89 1.88 1.94 1.91 1.75 1.67 1.55
0.75 0.79 0.82 0.85 0.84 0.84 0.87 0.86 0.89 0.99 1.10 1.21 1.19 1.18 1.17 1.13 1.13 1.26 1.41 1.41 1.37 1.41 1.44 1.47 1.54 1.76 1.84 1.82 1.85 1.79 1.78 1.69 1.81 1.56 1.67 1.98 2.00 1.94 1.92 1.92 1.80 1.58 1.57
0.85 0.88 0.88 0.89 0.89 0.92 0.93 0.95 0.96 0.97 0.94 1.06 1.10 1.15 1.16 1.13 1.11 1.20 1.39 1.39 1.35 1.32 1.35 1.30 1.35 1.48 1.73 1.87 1.92 1.86 1.66 1.86 1.85 1.86 1.62 1.59 1.79 1.86 1.90 1.93 1.94 1.81 1.62
0.89 0.89 0.88 0.90 0.93 0.97 0.98 1.00 1.02 1.02 1.01 0.94 0.97 1.03 1.09 1.16 1.27 1.37 1.39 1.42 1.43 1.36 1.31 1.28 1.26 1.30 1.36 1.58 1.81 1.95 1.95 1.94 1.90 1.84 1.74 1.55 1.52 1.57 1.71 1.88 1.93 1.93 1.90
0.87 0.90 0.91 0.94 0.95 0.98 0.98 1.01 1.06 1.10 1.05 1.01 1.00 1.01 1.07 1.21 1.37 1.44 1.54 1.41 1.31 1.33 1.36 1.34 1.28 1.25 1.25 1.27 1.43 1.75 1.96 1.92 1.91 1.77 1.64 1.60 1.62 1.67 1.66 1.64 1.75 1.87 1.92
0.86 0.91 0.95 0.94 0.94 0.99 1.04 1.11 1.16 1.15 1.14 1.15 1.10 1.11 1.21 1.29 1.30 1.34 1.36 1.42 1.30 1.20 1.21 1.20 1.22 1.24 1.29 1.32 1.30 1.36 1.70 1.91 1.93 1.85 1.79 1.81 1.82 1.77 1.72 1.66 1.58 1.60 1.56
0.87 0.92 0.93 0.96 0.98 1.00 1.06 1.13 1.19 1.27 1.30 1.26 1.25 1.24 1.23 1.29 1.31 1.32 1.32 1.27 1.22 1.19 1.15 1.14 1.12 1.13 1.12 1.20 1.27 1.35 1.46 1.71 1.84 1.84 1.91 1.91 1.85 1.77 1.74 1.78 1.67 1.61 1.44
0.82 0.88 0.92 0.95 1.00 1.03 1.06 1.14 1.31 1.35 1.37 1.39 1.41 1.33 1.27 1.26 1.27 1.29 1.29 1.24 1.16 1.15 1.02 1.02 1.06 1.09 1.08 1.13 1.19 1.26 1.38 1.44 1.68 1.82 1.89 1.98 1.94 1.86 1.74 1.78 1.79 1.72 1.56
0.79 0.84 0.88 0.94 1.00 1.01 1.04 1.07 1.13 1.24 1.39 1.42 1.40 1.36 1.34 1.33 1.32 1.30 1.27 1.27 1.23 1.19 1.03 1.05 1.09 1.12 1.12 1.15 1.21 1.27 1.31 1.43 1.57 1.73 1.81 1.91 2.00 1.98 1.84 1.74 1.76 1.80 1.76
0.79 0.84 0.88 0.92 0.97 0.99 1.02 1.04 1.09 1.10 1.13 1.22 1.34 1.29 1.34 1.37 1.35 1.31 1.28 1.18 1.12 1.24 1.22 1.16 1.13 1.16 1.16 1.16 1.17 1.27 1.32 1.40 1.54 1.59 1.71 1.83 1.93 1.94 1.80 1.76 1.83 1.86 1.83
0.65 0.69 0.76 0.84 0.92 0.91 0.97 1.03 1.05 1.06 1.07 1.12 1.16 1.22 1.30 1.39 1.38 1.34 1.35 1.29 1.24 1.23 1.25 1.22 1.21 1.22 1.25 1.31 1.30 1.33 1.39 1.45 1.50 1.56 1.69 1.80 1.79 1.70 1.62 1.66 1.83 1.87 1.87
0.53 0.56 0.58 0.60 0.63 0.70 0.81 0.88 0.92 0.96 0.97 1.02 1.05 1.06 1.15 1.20 1.18 1.21 1.26 1.26 1.25 1.26 1.25 1.28 1.28 1.21 1.17 1.28 1.45 1.47 1.52 1.53 1.54 1.58 1.64 1.83 1.84 1.94 1.85 1.72 1.78 1.83 1.84
0.54 0.49 0.51 0.52 0.54 0.56 0.55 0.56 0.63 0.69 0.76 0.82 0.88 0.95 1.02 1.06 1.09 1.12 1.14 1.20 1.24 1.28 1.31 1.34 1.33 1.31 1.32 1.34 1.38 1.48 1.51 1.50 1.53 1.58 1.63 1.67 1.74 1.64 1.66 1.79 1.92 1.83 1.78
0.61 0.56 0.48 0.47 0.47 0.46 0.47 0.50 0.50 0.51 0.53 0.54 0.59 0.68 0.75 0.82 0.89 0.95 1.02 1.07 1.17 1.22 1.28 1.30 1.32 1.36 1.35 1.33 1.29 1.31 1.42 1.42 1.45 1.51 1.53 1.63 1.68 1.60 1.56 1.63 1.73 1.72 1.73
0.60 0.59 0.54 0.50 0.44 0.42 0.43 0.41 0.38 0.39 0.39 0.41 0.44 0.45 0.48 0.52 0.56 0.61 0.68 0.80 0.93 1.05 1.14 1.18 1.22 1.24 1.29 1.30 1.33 1.31 1.26 1.27 1.40 1.45 1.49 1.52 1.59 1.62 1.65 1.58 1.59 1.61 1.64
0.57 0.59 0.56 0.53 0.52 0.47 0.43 0.42 0.43 0.41 0.39 0.40 0.41 0.41 0.42 0.43 0.45 0.46 0.49 0.53 0.59 0.70 0.84 0.97 1.07 1.13 1.15 1.22 1.24 1.26 1.28 1.31 1.36 1.41 1.45 1.46 1.48 1.53 1.59 1.63 1.62 1.62 1.57
0.54 0.52 0.57 0.54 0.53 0.51 0.51 0.51 0.50 0.49 0.46 0.45 0.43 0.45 0.46 0.45 0.46 0.47 0.47 0.49 0.49 0.51 0.55 0.66 0.76 0.89 1.06 1.10 1.14 1.20 1.23 1.23 1.27 1.32 1.33 1.45 1.45 1.47 1.53 1.57 1.58 1.45 1.48
0.56 0.54 0.51 0.55 0.56 0.53 0.53 0.54 0.53 0.52 0.52 0.51 0.48 0.45 0.45 0.46 0.48 0.50 0.51 0.50 0.49 0.50 0.51 0.55 0.58 0.66 0.81 0.96 1.08 1.11 1.17 1.19 1.21 1.24 1.21 1.22 1.30 1.34 1.37 1.40 1.43 1.45 1.39
Wind_Speed
16 17 18 19 21 21 22 22 23 23 22 22 21 19 19 19 20 21 21 22 24 23 22 22 22 22 22 22 23 22 21 18 16 16 15 14 14 13 13 13 14 13 13
18 18 18 19 20 21 23 24 24 23 24 23 22 22 22 23 22 22 22 23 24 24 24 24 23 23 23 23 23 23 23 22 19 18 18 17 17 16 16 15 14 14 15
19 19 20 20 21 21 22 23 25 27 26 25 24 24 24 24 24 24 24 24 24 24 24 24 24 23 23 23 24 25 25 25 24 22 22 22 21 20 19 19 17 17 17
22 22 23 23 23 23 23 24 24 26 28 30 30 30 29 28 27 26 26 25 25 26 25 25 25 24 24 24 24 25 25 26 26 26 26 28 27 24 22 21 20 20 19
24 24 25 26 26 26 25 25 26 25 25 26 28 29 30 30 29 28 28 27 27 26 26 26 25 25 24 24 23 24 24 24 24 25 26 28 28 26 24 22 22 22 21
25 25 25 25 26 26 27 27 27 27 27 27 27 27 29 30 31 31 32 32 30 28 28 27 26 25 25 25 25 24 24 23 23 22 20 19 21 22 21 21 20 19 19
25 24 24 24 25 26 27 28 27 27 27 28 28 28 28 28 29 31 32 32 32 32 31 29 28 27 26 26 25 26 25 25 25 22 20 18 18 20 20 20 19 19 19
26 25 25 26 26 26 27 27 28 28 27 27 27 27 27 27 28 28 30 31 32 32 33 32 31 30 29 27 27 26 25 25 25 25 25 23 22 22 21 19 19 20 19
26 26 27 27 27 28 28 28 29 29 28 28 28 28 28 27 28 28 28 29 29 30 32 33 33 33 32 31 30 29 27 26 25 26 26 27 27 26 25 24 23 21 21
26 26 26 26 27 28 28 29 29 30 30 29 28 28 28 29 29 30 29 29 29 28 28 30 34 34 35 34 34 32 30 29 27 26 26 27 28 28 28 28 27 24 22
26 26 26 26 27 27 28 28 28 28 29 30 29 28 28 28 29 29 29 29 29 29 28 29 30 32 34 35 37 36 35 33 31 29 28 28 28 28 29 30 29 28 26
26 26 26 26 26 26 27 27 26 26 26 26 28 28 27 27 27 27 28 27 27 27 28 29 29 30 33 36 38 38 37 37 35 33 31 30 29 29 28 28 29 29 29
26 26 25 25 25 25 24 24 23 23 23 23 24 25 25 24 24 24 25 26 28 29 29 29 30 32 32 35 37 39 40 38 38 37 34 33 31 30 29 29 29 29 29
25 24 24 24 24 24 23 22 21 20 20 20 20 20 21 22 22 22 25 25 26 29 30 30 30 31 31 32 34 38 39 41 40 39 38 37 34 32 32 31 31 31 30
24 23 22 22 22 21 20 20 20 19 18 19 20 21 22 23 24 25 26 27 29 29 29 30 30 30 31 32 33 34 37 39 43 43 41 40 37 35 33 32 31 31 30
23 22 22 21 21 20 19 19 18 18 17 17 17 18 19 22 23 26 28 29 29 30 30 30 31 31 31 31 32 34 35 38 40 42 43 42 40 37 36 34 33 33 32
22 21 21 20 19 19 18 18 18 17 15 13 14 15 16 19 21 23 24 25 26 26 27 28 29 30 31 32 34 34 36 37 40 40 42 42 42 41 38 36 34 34 34
20 20 19 19 18 18 17 17 17 15 15 15 15 16 17 18 19 20 21 22 21 22 23 26 29 31 32 33 34 35 36 38 38 40 41 41 42 39 39 37 38 35 33
19 19 19 18 17 17 17 16 16 15 16 16 17 17 17 17 17 17 18 17 19 21 22 23 25 27 29 31 33 34 35 36 37 37 36 38 41 40 40 41 37 36 36
17 17 17 17 17 16 16 15 15 15 16 16 15 17 17 17 17 18 17 18 18 17 19 22 23 23 23 23 25 25 28 31 33 33 33 33 33 30 31 34 37 35 35
16 16 16 16 16 16 15 15 15 15 15 16 16 17 17 16 16 17 18 18 18 16 17 21 17 15 17 18 14 15 14 13 18 26 29 31 29 29 28 29 26 28 28
15 15 15 15 15 15 15 15 15 15 15 16 16 16 17 16 17 17 18 18 19 20 20 20 19 16 17 15 15 13 12 13 13 17 21 22 24 24 22 25 25 24 24
14 14 14 13 14 14 13 13 14 15 15 16 17 17 18 18 18 19 19 20 20 20 21 21 21 20 19 16 14 13 12 13 14 14 17 20 23 22 23 23 24 25 23
13 13 13 12 12 12 12 13 13 15 16 17 18 19 19 20 20 21 21 22 22 22 22 22 21 21 21 20 18 16 13 12 10 12 15 17 18 19 19 20 22 22 19
13 13 12 12 11 11 11 13 14 15 17 19 20 20 20 21 22 23 24 24 24 24 23 23 22 22 21 21 20 19 17 14 12 14 14 15 16 17 18 16 18 19 21
13 12 12 12 12 12 12 12 14 15 17 20 21 21 22 23 24 25 25 25 24 24 24 23 23 22 21 21 21 20 19 17 15 14 13 14 17 19 21 21 19 20 21
Wind_Direction
301 296 291 287 284 282 278 275 270 268 270 267 268 270 269 268 268 269 268 266 267 267 266 267 267 265 264 263 263 264 266 268 268 269 268 261 255 258 254 255 257 256 254
302 301 299 293 289 284 279 275 272 270 266 265 265 267 267 268 270 270 270 270 269 269 268 266 268 266 261 260 261 261 262 262 264 266 261 262 260 259 259 260 259 258 262
304 301 299 297 295 289 284 282 275 271 269 267 265 267 267 268 269 269 270 270 269 268 268 267 266 266 264 261 260 261 260 261 260 262 262 262 263 259 260 259 258 262 263
299 298 296 295 294 292 289 285 282 276 272 268 266 265 266 267 268 268 269 269 269 268 267 266 266 265 264 263 261 262 263 261 261 262 264 263 259 254 255 255 257 259 262
301 299 295 292 291 290 289 286 283 280 276 272 268 267 265 264 265 266 267 268 268 267 266 265 264 263 262 262 263 262 264 262 263 264 269 264 254 246 247 252 255 257 256
303 299 298 296 292 290 289 288 283 279 276 274 272 269 267 266 265 265 264 266 266 265 264 263 262 262 262 261 261 262 262 261 262 265 271 261 241 241 241 248 254 252 254
305 302 299 298 295 293 290 288 285 281 277 274 271 270 270 269 268 266 265 265 264 262 261 261 261 260 262 260 261 261 260 259 258 257 258 251 246 242 243 249 250 251 254
305 302 300 298 296 295 292 288 284 281 278 274 272 271 270 269 269 270 267 266 264 261 259 259 259 259 260 260 260 259 258 258 256 253 251 251 248 246 244 247 250 252 255
304 302 300 298 296 295 293 289 284 280 276 274 272 271 271 271 270 270 269 268 267 264 260 258 258 258 258 258 257 257 258 257 257 254 252 251 249 248 248 250 250 253 256
306 305 303 301 300 297 294 291 285 277 273 272 272 271 271 271 272 270 269 267 267 266 264 261 259 259 257 256 255 255 255 255 254 255 254 252 251 250 249 249 250 251 253
308 306 305 303 303 302 299 295 289 282 274 269 270 270 271 271 272 270 268 267 265 265 265 266 264 261 258 256 254 253 253 255 254 253 254 253 251 251 250 248 248 249 251
310 309 307 304 304 305 305 299 291 284 277 271 269 268 269 272 272 269 265 265 266 266 267 268 266 265 262 258 256 254 254 252 251 251 251 251 251 250 250 249 249 249 250
311 309 309 308 307 308 308 305 299 289 280 274 271 267 268 272 270 271 269 268 268 267 268 269 270 268 267 263 258 255 253 252 250 248 249 249 249 250 250 250 250 250 251
313 312 310 311 309 309 309 308 304 296 285 278 275 270 269 272 273 273 270 271 274 271 270 270 271 271 268 266 263 257 254 249 248 247 247 248 248 248 248 251 250 249 250
317 315 314 314 314 312 312 312 308 302 291 284 279 274 271 272 275 273 276 276 276 276 274 272 270 271 270 269 266 262 256 252 247 247 246 245 245 246 247 248 250 248 249
320 318 317 316 316 315 315 315 314 309 301 293 289 286 281 277 278 277 278 277 277 276 273 272 272 270 271 271 270 265 260 255 250 248 245 244 243 243 246 247 249 248 246
326 321 320 319 319 320 318 316 315 316 314 306 303 300 295 290 289 287 284 283 280 277 275 273 272 272 273 273 270 267 262 258 252 250 246 245 242 246 245 246 249 247 244
328 330 327 323 321 322 322 319 314 314 316 314 312 309 306 300 299 299 294 291 282 279 282 279 278 274 274 275 273 268 267 259 254 248 246 244 246 250 247 250 250 249 245
329 331 332 330 327 326 323 323 321 319 317 314 310 310 311 309 309 307 302 299 294 287 288 289 287 283 278 278 274 269 269 260 249 247 246 245 246 248 249 248 249 247 244
331 334 337 337 339 338 333 328 326 323 324 323 322 322 316 308 307 309 310 309 303 299 296 302 292 293 288 284 281 277 275 257 247 245 241 241 241 244 243 248 246 246 246
330 334 337 339 340 340 342 341 338 335 331 328 326 327 325 322 318 314 311 307 309 305 307 307 304 300 306 297 285 289 280 272 250 241 241 238 241 240 245 251 228 241 244
321 330 334 336 338 341 344 345 346 346 345 342 338 336 335 330 325 321 317 313 311 301 302 306 306 302 311 307 304 299 295 270 265 247 237 234 234 234 237 234 239 245 237
309 320 329 334 337 339 341 346 348 349 348 349 347 344 342 338 334 330 323 316 312 309 304 301 301 298 299 301 304 299 290 290 265 249 239 240 238 239 237 237 235 227 234
313 311 319 326 334 339 340 342 344 348 347 345 343 342 339 336 333 333 329 325 318 313 307 302 299 297 294 291 295 293 292 297 268 248 249 241 235 237 236 237 231 231 230
313 315 315 318 322 324 328 334 338 339 345 345 341 338 336 334 331 329 327 323 319 315 312 306 299 296 294 289 289 288 284 283 275 267 254 240 233 233 229 225 220 225 223
309 313 316 317 312 317 318 322 330 335 338 342 342 340 338 336 333 329 326 324 321 317 313 308 302 297 291 289 287 283 278 275 273 271 257 246 241 237 235 233 236 233 235